[[{"header":{"parameterUnit":"m.s-1","parameterCategory":1,"la1":30.2991,"la2":30.254,"lo1":-89.0895,"lo2":-89.0444,"dy":0.0017,"dx":0.0017,"nx":28,"ny":28,"refTime":"2025-01-11T09:00:00:Z","depth":0,"parameterNumber":2,"parameterNumberName":"U-component_of_WINDS"},"data":[0,0,0,0,0,0,0,0,0,0,0,0,0,0,0,0,0,0,0,0,0,0,0,0,0,0,0,0,0,0,0,0,0,0,0,0,0,0,0,0,0,0,0,0,0,0,0,0,0,0,0,0,0,0,0,0,0,0,3.6157,3.6157,0,3.6192,3.6193,3.6193,3.6145,3.6143,3.6142,3.614,3.6175,3.6177,3.618,0,0,0,0,0,0,0,0,0,0,0,0,0,3.6047,3.6049,3.6157,3.6157,3.6158,3.6192,3.6193,3.6193,3.6145,3.6143,3.6141,3.6139,3.6174,3.6177,3.618,0,0,0,0,0,0,0,0,0,0,0,0,0,3.609,3.605,3.6157,3.6138,3.6137,3.6192,3.6193,3.6193,3.6146,3.6143,3.6141,3.6138,3.6173,3.6177,3.618,3.6255,0,0,3.6192,3.6193,0,0,0,0,0,0,0,0,3.6087,3.6094,3.614,3.614,3.6138,3.6162,3.6167,3.6214,3.6147,3.6142,3.614,3.6137,3.6172,3.6176,3.6188,3.6257,3.6258,3.6192,3.6194,3.6196,3.6197,0,0,0,0,0,0,0,3.6085,3.6092,3.6171,3.6141,3.614,3.6128,3.6131,3.6175,3.6171,3.6143,3.6139,3.6144,3.6171,3.6185,3.6189,3.6259,3.6192,3.6195,3.6198,3.6199,3.6391,3.6394,0,0,0,0,0,0,3.6084,3.609,3.617,3.6172,3.6106,3.6132,3.6135,3.6157,3.6171,3.617,3.6146,3.6142,3.618,3.6184,3.619,3.6279,3.6196,3.62,3.6202,3.6389,3.6392,3.6395,0,0,0,0,0,0,3.6082,3.6092,3.6168,3.613,3.6139,3.6136,3.6161,3.6159,3.6172,3.6174,3.6172,3.6161,3.6178,3.6184,3.624,3.6279,3.6201,3.6205,3.6385,3.639,3.6394,3.6457,0,0,0,0,0,0,3.6079,3.6091,3.6119,3.6131,3.6141,3.6218,3.6163,3.6161,3.6179,3.6173,3.6187,3.6187,3.6176,3.6234,3.6243,3.6283,3.6208,3.6382,3.6387,3.6392,3.6451,3.6463,3.6473,0,0,0,0,0,3.6075,3.6135,3.6121,3.6131,3.6177,3.622,3.6226,3.6213,3.6182,3.6211,3.6212,3.6186,3.6274,3.624,3.625,3.6291,3.6379,3.6386,3.6392,3.6446,3.6461,3.6472,0,0,0,0,0,0,3.6127,3.6136,3.6121,3.6187,3.6203,3.6212,3.6247,3.6228,3.6253,3.6247,3.6229,3.6233,3.6292,3.6297,3.626,3.6365,3.6321,3.633,3.6359,3.6373,3.6383,3.638,3.6211,0,0,0,0,0,3.6147,3.6182,3.6188,3.6245,3.6254,3.625,3.6268,3.6257,3.6273,3.628,3.6285,3.6301,3.6332,3.6353,3.6381,3.6452,3.6455,3.6486,3.6496,3.6505,3.6513,3.6551,3.6565,3.6416,3.6416,3.6416,0,0,3.6187,3.6196,3.6219,3.6256,3.6267,3.6304,3.6256,3.6296,3.6323,3.6285,3.6338,3.6343,3.636,3.6423,3.6451,3.6429,3.6555,3.6513,3.652,3.6523,3.6559,3.6573,3.6586,3.642,3.642,3.6419,0,0,3.6278,3.6289,3.6338,3.6351,3.6369,3.6366,3.6378,3.6391,3.6393,3.6445,3.6418,3.645,3.6504,3.6517,3.6531,3.663,3.6607,3.664,3.6696,3.6733,3.6745,3.6755,3.679,3.6803,3.6648,3.6648,3.6648,0,3.6325,3.6379,3.6366,3.6408,3.6426,3.6395,3.6445,3.6458,3.6485,3.6497,3.6472,3.654,3.655,3.6616,3.6641,3.6653,3.6666,3.6638,3.6744,3.6755,3.6764,3.6797,3.6811,3.6652,3.6651,3.6651,3.665,0,3.6436,3.6474,3.6512,3.654,3.6561,3.6607,3.6601,3.6624,3.6612,3.6612,3.6666,3.6677,3.6707,3.6723,3.671,3.6788,3.6774,3.6747,3.6702,3.6782,3.6813,3.6826,3.6657,3.6656,3.6655,3.6654,0,0,3.656,3.6581,3.6595,3.6607,3.6626,3.6655,3.6701,3.6731,3.6752,3.6772,3.6809,3.6857,3.6833,3.6849,3.6838,3.6871,3.6949,3.6841,3.6841,3.686,3.7035,3.7055,3.707,3.6935,3.6937,3.6939,3.7034,0,3.6651,3.6729,3.6719,3.6794,3.683,3.6802,3.6841,3.6857,3.6859,3.6889,3.689,3.6924,3.6889,3.6899,3.6931,3.6933,3.6984,3.6926,3.6969,3.697,3.6965,3.7086,3.7106,3.7195,3.7046,3.7048,3.7049,0,3.6767,3.6793,3.6872,3.6886,3.6901,3.6936,3.6964,3.6993,3.7011,3.701,3.7029,3.7013,3.7058,3.7014,3.7076,3.7037,3.7054,3.7058,3.7061,3.7064,3.7014,3.7091,3.7223,3.7236,3.7068,3.7067,3.7065,0,3.6849,3.6903,3.6958,3.6969,3.6988,3.7014,3.7022,3.7038,3.7057,3.7082,3.7095,3.7124,3.714,3.7163,3.7156,3.7124,3.722,3.7174,3.7219,3.722,3.724,3.7238,3.7376,3.7252,3.7252,3.7252,3.7252,0,3.6952,3.7001,3.6995,3.7028,3.7083,3.7071,3.7126,3.7131,3.7145,3.7179,3.7157,3.7189,3.7178,3.7209,3.7204,3.7256,3.7264,3.7264,3.7262,3.7266,3.7266,3.7276,3.7269,3.7255,3.7255,3.7254,3.7253,0,3.7052,3.705,3.7107,3.7121,3.7126,3.7165,3.7177,3.7208,3.7208,3.7252,3.7261,3.7261,3.7298,3.7293,3.7333,3.7329,3.7395,3.7385,3.7389,3.7386,3.7432,3.7427,3.7579,3.7599,3.7464,3.7465,3.7466,0,3.7117,3.7155,3.7173,3.7194,3.7205,3.724,3.726,3.7251,3.7273,3.7297,3.7326,3.736,3.7387,3.7447,3.745,3.7481,3.7472,3.7523,3.7476,3.7479,3.7472,3.747,3.7474,3.7532,3.7534,3.7535,3.7536,0,3.7233,3.7231,3.7261,3.7292,3.7317,3.734,3.7361,3.738,3.7373,3.7399,3.7436,3.7457,3.7499,3.7534,3.7563,3.7572,3.7553,3.7551,3.7563,3.7567,3.7567,3.7567,3.7413,3.7547,3.7546,3.7545,3.7544,3.7544,3.7317,3.735,3.7368,3.7403,3.7418,3.7439,3.7469,3.7474,3.7505,3.7539,3.7532,3.7574,3.7592,3.7629,3.7642,3.7674,3.7655,3.7673,3.7677,3.7681,3.7687,3.7563,3.768,3.7679,3.7679,3.7679,3.7679,0,3.7432,3.7443,3.7475,3.7506,3.7534,3.7515,3.7538,3.7562,3.7599,3.7618,3.7646,3.7689,3.7723,3.773,3.7762,3.7787,3.7779,3.7796,3.7794,3.7796,3.7702,3.7688,3.7802,3.7802,3.7802,3.7802,3.7802,3.7802,3.7495,3.7549,3.7549,3.761,3.762,3.7662,3.7677,3.7696,3.7711,3.776,3.7789,3.7794,3.7808,3.7841,3.7872,3.7873,3.7885,3.7905,3.7903,3.7815,3.7803,3.7791,3.7778,3.7908,3.7909,3.7995,3.7995,3.7996]},{"header":{"parameterUnit":"m.s-1","parameterCategory":1,"la1":30.2991,"la2":30.254,"lo1":-89.0895,"lo2":-89.0444,"dy":0.0017,"dx":0.0017,"nx":28,"ny":28,"refTime":"2025-01-11T09:00:00:Z","depth":0,"parameterNumber":3,"parameterNumberName":"V-component_of_WINDS"},"data":[0,0,0,0,0,0,0,0,0,0,0,0,0,0,0,0,0,0,0,0,0,0,0,0,0,0,0,0,0,0,0,0,0,0,0,0,0,0,0,0,0,0,0,0,0,0,0,0,0,0,0,0,0,0,0,0,0,0,-4.9841,-4.9842,0,-4.9986,-4.9988,-4.9989,-4.9962,-4.996,-4.9957,-4.9955,-5.0101,-5.0107,-5.0114,0,0,0,0,0,0,0,0,0,0,0,0,0,-4.9538,-4.9544,-4.9841,-4.9842,-4.9844,-4.9986,-4.9988,-4.999,-4.9963,-4.996,-4.9957,-4.9954,-5.0099,-5.0107,-5.0114,0,0,0,0,0,0,0,0,0,0,0,0,0,-4.9675,-4.9546,-4.984,-4.9848,-4.985,-4.9985,-4.9988,-4.999,-4.9964,-4.996,-4.9956,-4.9952,-5.0097,-5.0106,-5.0115,-5.0251,0,0,-5.0144,-5.0148,0,0,0,0,0,0,0,0,-4.9667,-4.9686,-4.9845,-4.9848,-4.985,-4.9952,-4.9935,-5.0078,-4.9964,-4.992,-4.9955,-4.995,-5.0055,-5.0067,-5.0103,-5.0258,-5.0264,-5.0145,-5.0151,-5.0155,-5.0157,0,0,0,0,0,0,0,-4.9658,-4.968,-4.9898,-4.9847,-4.9851,-4.9844,-4.9859,-4.9962,-5.0007,-4.9924,-4.9922,-4.994,-5.0055,-5.0094,-5.0106,-5.0267,-5.0145,-5.0153,-5.0159,-5.0163,-5.0541,-5.0545,0,0,0,0,0,0,-4.9646,-4.9672,-4.9893,-4.9902,-4.9747,-4.9852,-4.9869,-4.9923,-5.0006,-5.0015,-4.9943,-4.9938,-5.008,-5.0095,-5.0111,-5.0277,-5.0155,-5.0164,-5.0169,-5.0537,-5.0542,-5.0547,0,0,0,0,0,0,-4.964,-4.9666,-4.9888,-4.9787,-4.9815,-4.9862,-4.9923,-4.9928,-4.9967,-5.0021,-5.0029,-4.9974,-5.0077,-5.0098,-5.0217,-5.0281,-5.0168,-5.0176,-5.0532,-5.0538,-5.0544,-5.0608,0,0,0,0,0,0,-4.9631,-4.9664,-4.9717,-4.9788,-4.982,-4.9992,-4.9927,-4.9934,-4.9984,-4.9978,-5.0052,-5.0061,-5.0076,-5.0203,-5.0226,-5.0292,-5.0184,-5.0526,-5.0535,-5.0542,-5.06,-5.0616,-5.0629,0,0,0,0,0,-4.962,-4.9728,-4.9719,-4.9746,-4.9887,-4.9995,-5.0013,-5.0029,-4.9989,-5.0042,-5.0077,-5.0058,-5.027,-5.0215,-5.0242,-5.0311,-5.0522,-5.0532,-5.0542,-5.0594,-5.0613,-5.0629,0,0,0,0,0,0,-4.9662,-4.9738,-4.9729,-4.9863,-4.9923,-4.9991,-5.0058,-5.0049,-5.0121,-5.0113,-5.0129,-5.0146,-5.0267,-5.0301,-5.0238,-5.0447,-5.039,-5.0406,-5.0421,-5.0439,-5.0454,-5.0443,-5.0192,0,0,0,0,0,-4.9687,-4.9769,-4.9831,-4.9943,-4.9974,-5.0011,-5.0059,-5.0066,-5.0128,-5.0153,-5.0197,-5.0258,-5.0338,-5.039,-5.0467,-5.0605,-5.062,-5.0665,-5.068,-5.0691,-5.0705,-5.078,-5.0801,-5.0579,-5.0579,-5.0579,0,0,-4.9739,-4.979,-4.9841,-4.9953,-5.0,-5.0085,-5.0032,-5.0124,-5.0187,-5.0167,-5.0282,-5.0316,-5.0385,-5.0514,-5.0573,-5.0546,-5.077,-5.0704,-5.0713,-5.072,-5.0793,-5.0814,-5.0832,-5.0586,-5.0585,-5.0583,0,0,-4.9877,-4.9924,-5.0023,-5.0072,-5.0145,-5.0169,-5.0193,-5.0262,-5.0284,-5.0401,-5.0388,-5.0462,-5.06,-5.065,-5.0693,-5.0851,-5.0837,-5.0875,-5.0951,-5.1024,-5.1042,-5.1057,-5.1114,-5.1134,-5.0888,-5.0889,-5.0889,0,-4.9932,-5.006,-5.0075,-5.0169,-5.0218,-5.0205,-5.0305,-5.0351,-5.0445,-5.048,-5.0448,-5.0622,-5.0667,-5.0808,-5.0846,-5.0882,-5.0909,-5.0867,-5.1038,-5.1054,-5.1069,-5.1123,-5.1144,-5.0893,-5.0892,-5.0892,-5.0891,0,-5.0124,-5.0213,-5.0284,-5.0376,-5.0433,-5.053,-5.0559,-5.0615,-5.0618,-5.0645,-5.0763,-5.0818,-5.0905,-5.0939,-5.0942,-5.1081,-5.1062,-5.1034,-5.0977,-5.1094,-5.1145,-5.1166,-5.0899,-5.0897,-5.0896,-5.0895,0,0,-5.0292,-5.0392,-5.0418,-5.046,-5.0539,-5.0608,-5.0703,-5.079,-5.0838,-5.0903,-5.0984,-5.1101,-5.1076,-5.1126,-5.1134,-5.1198,-5.132,-5.1163,-5.1165,-5.119,-5.1477,-5.1497,-5.1521,-5.1311,-5.1315,-5.1318,-5.1471,0,-5.0438,-5.0607,-5.0624,-5.0776,-5.0858,-5.0847,-5.093,-5.0988,-5.1016,-5.1089,-5.112,-5.1203,-5.1164,-5.1194,-5.1257,-5.1292,-5.1378,-5.1281,-5.1386,-5.139,-5.137,-5.1548,-5.157,-5.1711,-5.1491,-5.1494,-5.1497,0,-5.063,-5.0702,-5.0863,-5.0931,-5.0966,-5.1041,-5.1122,-5.1192,-5.1257,-5.1273,-5.1329,-5.1329,-5.1427,-5.1366,-5.1501,-5.1435,-5.1479,-5.1503,-5.1508,-5.1519,-5.145,-5.1563,-5.1757,-5.1778,-5.1528,-5.1526,-5.1524,0,-5.0737,-5.0874,-5.0988,-5.1024,-5.1107,-5.1159,-5.1196,-5.1257,-5.1309,-5.1379,-5.1413,-5.1494,-5.1538,-5.16,-5.1622,-5.1576,-5.1756,-5.1697,-5.1772,-5.1772,-5.1811,-5.1808,-5.2014,-5.1839,-5.1838,-5.1838,-5.1837,0,-5.0899,-5.0997,-5.1037,-5.1107,-5.1217,-5.1235,-5.1343,-5.1377,-5.1432,-5.1508,-5.1503,-5.1574,-5.1598,-5.1674,-5.1691,-5.1801,-5.182,-5.1836,-5.1839,-5.1837,-5.1835,-5.1866,-5.1857,-5.1844,-5.1842,-5.1841,-5.184,0,-5.1037,-5.1068,-5.1191,-5.1259,-5.1279,-5.1357,-5.1415,-5.1483,-5.151,-5.1606,-5.163,-5.1672,-5.1761,-5.1788,-5.1894,-5.1906,-5.2034,-5.2029,-5.2013,-5.2013,-5.2087,-5.208,-5.232,-5.2353,-5.2155,-5.2157,-5.2159,0,-5.1138,-5.1214,-5.1291,-5.1342,-5.1381,-5.1463,-5.1515,-5.1536,-5.1591,-5.1671,-5.1729,-5.1816,-5.1888,-5.2029,-5.2069,-5.2151,-5.2147,-5.2226,-5.2159,-5.2155,-5.2149,-5.2144,-5.2152,-5.2238,-5.2241,-5.2242,-5.2244,0,-5.1314,-5.1326,-5.1402,-5.1484,-5.1547,-5.1613,-5.1676,-5.1718,-5.1747,-5.1809,-5.19,-5.1956,-5.2065,-5.2152,-5.2235,-5.2272,-5.2263,-5.2264,-5.2286,-5.2284,-5.2272,-5.228,-5.2047,-5.2259,-5.2257,-5.2256,-5.2255,-5.2255,-5.1437,-5.1504,-5.1569,-5.1654,-5.1704,-5.1763,-5.183,-5.1866,-5.1942,-5.2033,-5.2041,-5.2139,-5.2202,-5.2313,-5.2354,-5.2431,-5.2408,-5.2439,-5.2447,-5.2455,-5.2461,-5.226,-5.2446,-5.2445,-5.2445,-5.2445,-5.2445,0,-5.1613,-5.1655,-5.1733,-5.1822,-5.1889,-5.1876,-5.1945,-5.2002,-5.2088,-5.2148,-5.2219,-5.2324,-5.2408,-5.2455,-5.2539,-5.2592,-5.259,-5.2613,-5.261,-5.2619,-5.2476,-5.2449,-5.2614,-5.2614,-5.2614,-5.2613,-5.2613,-5.2613,-5.1713,-5.1826,-5.1845,-5.1983,-5.2023,-5.212,-5.2161,-5.2215,-5.2263,-5.238,-5.2451,-5.2481,-5.2536,-5.2625,-5.2702,-5.2713,-5.2744,-5.2771,-5.278,-5.2646,-5.2629,-5.2612,-5.2587,-5.2777,-5.2777,-5.2916,-5.2917,-5.2918]}]]